Weather History for Creston, IA

Change the Weather History Date:

Wednesday, February 13, 2013

  Actual Average Record
Temperature  
Mean Temperature 36 °F -  
Max Temperature 48 °F 35 °F 64 °F (1990)
Min Temperature 23 °F 17 °F -6 °F (1986)
Degree Days  
Heating Degree Days 30    
Moisture  
Dew Point 24 °F    
Average Humidity 64    
Maximum Humidity 86    
Minimum Humidity 34    
Precipitation  
Precipitation 0.00 in - - ()
Sea Level Pressure  
Sea Level Pressure 29.79 in    
Wind  
Wind Speed 7 mph (WSW)    
Max Wind Speed 16 mph    
Max Gust Speed 20 mph    
Visibility 10 miles    
Events      
Averages and records for this station are not official NWS values.
T = Trace of Precipitation, MM = Missing Value Source: NWS Daily Summary

Daily Weather History Graph

Daily Weather History Graph

Search for Another Location

Airport:

Trip Planner

Search our weather history database for the weather conditions in past years. The results will help you decide how hot, cold, wet, or windy it might be!

Date:

Astronomy

Feb. 13, 2013 Rise Set
Actual Time 7:14 AM CST 5:49 PM CST
Civil Twilight 6:45 AM CST 6:18 PM CST
Nautical Twilight 6:13 AM CST 6:50 PM CST
Astronomical Twilight 5:41 AM CST 7:22 PM CST
Moon 8:41 AM CST (2/13) 9:55 PM CST (2/13)
Length of Visible Light 11h 32m
Length of Day
10h 35m
Waxing Crescent, 14% of the Moon is Illuminated
Feb 13
Waxing Crescent
Feb 17
First Quarter
Feb 25
Full
Mar 4
Last Quarter
Mar 11
New

Hourly Weather History & Observations

Time (CST) Temp. Windchill Dew Point Humidity Pressure Visibility Wind Dir Wind Speed Gust Speed Precip Events Conditions
12:15 AM 28.4 °F 23.3 °F 21.2 °F 74% 29.88 in 10.0 mi WSW 4.6 mph - N/A   Clear
12:35 AM 28.4 °F 23.3 °F 21.2 °F 74% 29.88 in 10.0 mi West 4.6 mph - N/A   Clear
12:55 AM 28.4 °F 23.3 °F 21.2 °F 74% 29.88 in 10.0 mi West 4.6 mph - N/A   Clear
1:15 AM 26.6 °F 20.0 °F 21.2 °F 80% 29.88 in 10.0 mi WNW 5.8 mph - N/A   Clear
1:35 AM 28.4 °F 23.3 °F 21.2 °F 74% 29.87 in 10.0 mi West 4.6 mph - N/A   Clear
1:55 AM 28.4 °F 23.3 °F 21.2 °F 74% 29.86 in 10.0 mi WNW 4.6 mph - N/A   Clear
2:15 AM 26.6 °F 20.0 °F 19.4 °F 74% 29.86 in 10.0 mi WNW 5.8 mph - N/A   Clear
2:35 AM 26.6 °F 21.2 °F 21.2 °F 80% 29.86 in 10.0 mi WNW 4.6 mph - N/A   Clear
2:55 AM 26.6 °F 21.2 °F 19.4 °F 74% 29.86 in 10.0 mi WNW 4.6 mph - N/A   Clear
3:15 AM 26.6 °F 20.0 °F 19.4 °F 74% 29.86 in 10.0 mi West 5.8 mph - N/A   Clear
3:35 AM 26.6 °F 19.1 °F 19.4 °F 74% 29.86 in 10.0 mi West 6.9 mph - N/A   Clear
3:55 AM 24.8 °F 17.9 °F 19.4 °F 80% 29.84 in 10.0 mi West 5.8 mph - N/A   Clear
4:15 AM 23.0 °F 18.4 °F 17.6 °F 80% 29.84 in 10.0 mi West 3.5 mph - N/A   Clear
4:35 AM 23.0 °F 14.7 °F 19.4 °F 86% 29.83 in 10.0 mi West 6.9 mph - N/A   Clear
4:55 AM 23.0 °F 15.8 °F 17.6 °F 80% 29.83 in 10.0 mi West 5.8 mph - N/A   Clear
5:15 AM 23.0 °F 13.9 °F 19.4 °F 86% 29.83 in 10.0 mi WNW 8.1 mph - N/A   Clear
5:35 AM 24.8 °F 17.9 °F 19.4 °F 80% 29.83 in 10.0 mi WNW 5.8 mph - N/A   Clear
6:15 AM 24.8 °F 16.9 °F 19.4 °F 80% 29.82 in 10.0 mi West 6.9 mph - N/A   Clear
6:35 AM 24.8 °F 16.1 °F 19.4 °F 80% - 10.0 mi West 8.1 mph - N/A   Clear
6:55 AM 24.8 °F 16.1 °F 19.4 °F 80% 29.82 in 10.0 mi West 8.1 mph - N/A   Clear
7:15 AM 24.8 °F 16.9 °F 19.4 °F 80% - 10.0 mi West 6.9 mph - N/A   Clear
7:35 AM 24.8 °F 17.9 °F 19.4 °F 80% 29.82 in 10.0 mi West 5.8 mph - N/A   Clear
7:55 AM 26.6 °F 20.0 °F 21.2 °F 80% 29.82 in 10.0 mi West 5.8 mph - N/A   Clear
8:15 AM 28.4 °F 19.7 °F 21.2 °F 74% 29.83 in 10.0 mi West 9.2 mph - N/A   Clear
8:35 AM 30.2 °F 21.3 °F 24.8 °F 80% 29.83 in 10.0 mi West 10.4 mph - N/A   Clear
8:55 AM 32.0 °F 24.2 °F 24.8 °F 75% 29.84 in 10.0 mi West 9.2 mph - N/A   Clear
9:15 AM 33.8 °F 25.8 °F 26.6 °F 75% 29.84 in 10.0 mi West 10.4 mph - N/A   Clear
9:35 AM 35.6 °F 26.6 °F 26.6 °F 70% 29.83 in 10.0 mi WNW 13.8 mph - N/A   Clear
9:55 AM 35.6 °F 26.2 °F 26.6 °F 70% 29.84 in 10.0 mi West 15.0 mph - N/A   Clear
10:15 AM 37.4 °F 29.8 °F 26.6 °F 65% 29.84 in 10.0 mi West 11.5 mph - N/A   Clear
10:35 AM 39.2 °F 33.0 °F 26.6 °F 61% 29.84 in 10.0 mi West 9.2 mph - N/A   Clear
10:55 AM 39.2 °F 33.0 °F 26.6 °F 61% 29.84 in 10.0 mi West 9.2 mph - N/A   Clear
11:15 AM 39.2 °F 33.0 °F 26.6 °F 61% 29.83 in 10.0 mi West 9.2 mph - N/A   Clear
11:35 AM 42.8 °F 37.0 °F 26.6 °F 53% 29.83 in 10.0 mi WSW 10.4 mph - N/A   Clear
11:55 AM 44.6 °F 39.2 °F 26.6 °F 49% 29.82 in 10.0 mi WSW 10.4 mph - N/A   Clear
12:15 PM 44.6 °F 38.4 °F 24.8 °F 46% 29.81 in 10.0 mi WSW 12.7 mph - N/A   Clear
12:35 PM 46.4 °F 41.1 °F 24.8 °F 43% 29.80 in 10.0 mi West 11.5 mph 16.1 mph N/A   Clear
12:55 PM 46.4 °F 41.1 °F 24.8 °F 43% 29.79 in 10.0 mi WSW 11.5 mph - N/A   Clear
1:15 PM 46.4 °F 40.7 °F 24.8 °F 43% 29.78 in 10.0 mi WSW 12.7 mph - N/A   Clear
1:35 PM 48.2 °F - 26.6 °F 43% 29.78 in 10.0 mi WSW 13.8 mph - N/A   Clear
1:55 PM 48.2 °F - 24.8 °F 40% 29.77 in 10.0 mi West 12.7 mph 18.4 mph N/A   Clear
2:15 PM 48.2 °F - 24.8 °F 40% 29.77 in 10.0 mi WSW 15.0 mph 18.4 mph N/A   Clear
2:35 PM 48.2 °F - 23.0 °F 37% 29.77 in 10.0 mi WSW 16.1 mph 19.6 mph N/A   Clear
2:55 PM 48.2 °F - 24.8 °F 40% 29.76 in 10.0 mi WSW 13.8 mph 19.6 mph N/A   Clear
3:15 PM 48.2 °F - 24.8 °F 40% 29.76 in 10.0 mi WSW 12.7 mph - N/A   Clear
3:35 PM 48.2 °F - 21.2 °F 34% 29.76 in 10.0 mi WSW 12.7 mph - N/A   Clear
4:15 PM 48.2 °F - 21.2 °F 34% 29.75 in 10.0 mi WSW 10.4 mph - N/A   Unknown
4:35 PM 48.2 °F - 23.0 °F 37% 29.75 in 10.0 mi WSW 10.4 mph - N/A   Clear
4:55 PM 48.2 °F - 24.8 °F 40% 29.74 in 10.0 mi WSW 8.1 mph - N/A   Clear
5:15 PM 46.4 °F 42.4 °F 24.8 °F 43% 29.74 in 10.0 mi SW 8.1 mph - N/A   Clear
5:35 PM 41.0 °F 36.4 °F 26.6 °F 57% 29.74 in 10.0 mi SW 6.9 mph - N/A   Clear
5:55 PM 41.0 °F 39.0 °F 26.6 °F 57% 29.74 in 10.0 mi WSW 3.5 mph - N/A   Clear
6:15 PM 41.0 °F 38.0 °F 26.6 °F 57% 29.74 in 10.0 mi SW 4.6 mph - N/A   Scattered Clouds
6:35 PM 39.2 °F 34.2 °F 26.6 °F 61% 29.75 in 10.0 mi SW 6.9 mph - N/A   Scattered Clouds
6:55 PM 39.2 °F 34.2 °F 26.6 °F 61% 29.75 in 10.0 mi SSW 6.9 mph - N/A   Scattered Clouds
7:15 PM 39.2 °F 34.2 °F 26.6 °F 61% 29.74 in 10.0 mi SSW 6.9 mph - N/A   Scattered Clouds
7:35 PM 39.2 °F 34.2 °F 26.6 °F 61% 29.73 in 10.0 mi SW 6.9 mph - N/A   Scattered Clouds
7:55 PM 39.2 °F 34.2 °F 26.6 °F 61% 29.74 in 10.0 mi SW 6.9 mph - N/A   Scattered Clouds
8:15 PM 37.4 °F 32.1 °F 26.6 °F 65% 29.73 in 10.0 mi SW 6.9 mph - N/A   Scattered Clouds
8:35 PM 37.4 °F 32.8 °F 26.6 °F 65% 29.73 in 10.0 mi SW 5.8 mph - N/A   Scattered Clouds
8:55 PM 39.2 °F 33.0 °F 26.6 °F 61% 29.72 in 10.0 mi SW 9.2 mph - N/A   Clear
9:15 PM 39.2 °F 33.6 °F 26.6 °F 61% 29.72 in 10.0 mi WSW 8.1 mph - N/A   Clear
9:35 PM 35.6 °F 29.2 °F 26.6 °F 70% 29.73 in 10.0 mi WSW 8.1 mph - N/A   Clear
9:55 PM 35.6 °F 28.6 °F 26.6 °F 70% 29.73 in 10.0 mi WSW 9.2 mph - N/A   Clear
10:15 PM 33.8 °F 27.7 °F 26.6 °F 75% 29.73 in 10.0 mi West 6.9 mph - N/A   Clear
10:35 PM 33.8 °F 28.6 °F 26.6 °F 75% 29.73 in 10.0 mi WSW 5.8 mph - N/A   Clear
10:55 PM 33.8 °F 27.0 °F 26.6 °F 75% 29.73 in 10.0 mi West 8.1 mph - N/A   Clear
11:15 PM 33.8 °F 27.0 °F 26.6 °F 75% 29.73 in 10.0 mi WSW 8.1 mph - N/A   Scattered Clouds
11:35 PM 35.6 °F 27.5 °F 26.6 °F 70% 29.73 in 10.0 mi West 11.5 mph - N/A   Scattered Clouds
11:55 PM 35.6 °F 28.6 °F 26.6 °F 70% 29.74 in 10.0 mi West 9.2 mph - N/A   Clear